[Date Prev][Date Next][Thread Prev][Thread Next] - [Date Index][Thread Index][Author Index]

2 LIne ISS Keps 7-17



ISS
1 25544U 98067A   02198.15495329  .00016273  00000-0  21027-3 0  6685
2 25544  51.6362 262.5262 0008679   5.8654  99.2388 15.59070636208706


----
Via the sarex mailing list at AMSAT.ORG courtesy of AMSAT-NA.
To unsubscribe, send "unsubscribe sarex" to Majordomo@amsat.org



AMSAT Top AMSAT Home